{"data":{"norad_id":68644,"intl_designator":"2026-075J","name":"QIANFAN-117","alt_names":[],"object_type":"PAYLOAD","status":"ACTIVE","operator":null,"country":"PRC","launch_date":"2026-04-07","launch_site_code":"WSC","launch_vehicle":null,"mission":null,"orbit_class":"UNKNOWN","rcs_meters":null,"size_class":null,"mass_kg":null,"dimensions":null,"purposes":[],"wikipedia_slug":null,"has_3d_model":false,"image_url":null,"decayed_at":null,"tle_current":{"epoch":"2026-09-20T04:21:19.008000Z","epoch_age_seconds":90771,"freshness":"FRESH","line1":"1 68644U 26075J   26263.18147000  .00000041  00000+0  45443-4 0  9996","line2":"2 68644  88.9861 311.3019 0002140  89.8560 270.2836 13.51023022 22631","mean_motion":13.51023022,"eccentricity":0.000214,"inclination_deg":88.9861,"raan_deg":311.3019,"arg_perigee_deg":89.856,"mean_anomaly_deg":270.2836,"bstar":4.5443e-5,"rev_number":2263,"period_min":106.58589650591,"perigee_km":1066.9034085222,"apogee_km":1070.0905678692,"semimajor_km":7446.6339881957,"source":"CELESTRAK","updated_at":"2026-09-20T09:00:24.369805Z"}}}